Location: Silverdale
(47.6506°N, 122.6941°W)
Time: 03:52:24
(UTC+00:00)

Altair - Pass Details

Date: 12 October 2022
Orbit: 1501 x 1682 km, 47.2° (Epoch: 04 December)

Event Time Altitude Azimuth Distance (km) Brightness Sun altitude
Rises 10:38:25 0° 227° (SW) 4,691 - -37.3°
Reaches altitude 10° 10:41:29 10° 223° (SW) 3,731 - -36.9°
Exits shadow 10:50:13 56° 158° (SSE) 1,852 7.7 -35.6°
Maximum altitude 10:50:39 56° 149° (SSE) 1,849 7.7 -35.6°
Drops below altitude 10° 11:00:10 10° 75° (ENE) 3,882 10.4 -34.2°
Sets 11:03:26 0° 71° (ENE) 4,891 11.2 -33.8°
